Location: Les Salelles
(44.4192°N, 4.1044°E)
Time: 16:39:32
(UTC+00:00)

USA 267 - Pass Details

Date: 20 January 2021
Orbit: 1102 x 1106 km, 123.0° (Epoch: 22 February)

Event Time Altitude Azimuth Distance (km) Brightness Sun altitude
Exits shadow 18:04:14 21° 89° (E) 2,263 4.3 -15.5°
Maximum altitude 18:07:00 28° 126° (SE) 1,953 4.2 -15.9°
Drops below altitude 10° 18:12:25 10° 182° (S) 2,952 5.7 -16.9°
Sets 18:15:19 0° 194° (SSW) 3,907 6.5 -17.4°
